Home   Weather   Kyiv   Past weeks
Flag for Ukraine

Past Weather in Kyiv, Ukraine — Yesterday and Last 2 Weeks

Now
36 °F

Partly sunny.


Feels Like: 27 °F
Forecast: 46 / 25 °F
Wind: 13 mph from North

Location: Kyiv

Current Time: Mar 31, 2020 at 2:26:54 pm

Latest Report: Mar 31, 2020 at 1:30 pm


Visibility: N/A

Pressure: 30.12 "Hg

Humidity: 56%

Dew Point: 21 °F

Location of KyivLocation

Past Weather in Kyiv — Graph

°F

Kyiv Temperature Yesterday

Maximum temperature yesterday: 50 °F (at 12:00 pm)
Minimum temperature yesterday: 30 °F (at 10:30 pm)
Average temperature yesterday: 42 °F

High & Low Weather Summary for the Past Weeks

 TemperatureHumidityPressure
High66 °F (Mar 29, 4:00 pm)100% (Mar 18, 2:30 am)30.66 "Hg (Mar 18, 2:30 am)
Low21 °F (Mar 24, 6:00 am)13% (Mar 27, 3:00 pm)29.62 "Hg (Mar 29, 3:30 pm)
Average41 °F50%30.22 "Hg
* Reported Mar 16 11:30 am — Mar 31 12:30 pm, Kyiv. Weather by CustomWeather, © 2020

Note: Actual official high and low records may vary slightly from our data, if they occured in-between our weather recording intervals... More about our weather records

Kyiv Weather History for the Previous 24 Hours

Scroll right to see more
 ConditionsComfort  
Time TempWeatherWind HumidityBarometerVisibility
12:30 pm
Tue, Mar 31
30 °FSnow flurries. Broken clouds.15 mph75%30.12 "Hg2 mi
12:00 pm30 °FSnow flurries. Broken clouds.15 mph69%30.09 "Hg4 mi
11:30 am30 °FSnow flurries. Broken clouds.13 mph69%30.09 "Hg6 mi
11:00 am30 °FSnow flurries. More clouds than sun.13 mph75%30.09 "Hg4 mi
10:30 am30 °FOvercast.13 mph69%30.09 "Hg6 mi
10:00 am28 °FSnow flurries. Broken clouds.13 mph74%30.09 "HgN/A
9:30 am28 °FSnow flurries. Broken clouds.13 mph74%30.07 "HgN/A
9:00 am28 °FLight snow. Broken clouds.13 mph80%30.07 "Hg6 mi
8:30 am28 °FLight snow. More clouds than sun.13 mph80%30.04 "Hg5 mi
8:00 am28 °FLight snow. More clouds than sun.8 mph80%30.04 "Hg6 mi
7:30 am28 °FLight snow. Overcast.13 mph80%30.04 "Hg4 mi
7:00 am28 °FOvercast.13 mph74%30.01 "HgN/A
6:30 am28 °FOvercast.13 mph74%30.01 "HgN/A
6:00 am28 °FOvercast.13 mph74%30.01 "HgN/A
5:30 am28 °FOvercast.15 mph74%30.01 "HgN/A
5:00 am30 °FOvercast.15 mph69%29.98 "HgN/A
4:30 am30 °FOvercast.13 mph75%29.98 "HgN/A
4:00 am30 °FOvercast.15 mph75%29.98 "HgN/A
3:30 am30 °FOvercast.13 mph80%29.98 "HgN/A
3:00 am30 °FOvercast.13 mph80%29.98 "HgN/A
2:30 am30 °FOvercast.13 mph80%29.98 "HgN/A
2:00 am30 °FOvercast.15 mph80%29.98 "HgN/A
1:30 am30 °FOvercast.13 mph80%29.95 "HgN/A
1:00 am30 °FOvercast.15 mph80%29.95 "HgN/A
12:30 am30 °FPassing clouds.15 mph80%29.95 "HgN/A
12:00 am30 °FPassing clouds.15 mph80%29.95 "HgN/A
11:30 pm
Mon, Mar 30
30 °FPassing clouds.10 mph86%29.95 "HgN/A
11:00 pm30 °FLight snow. Mostly cloudy.15 mph86%29.95 "HgN/A
10:30 pm30 °FLight snow. Mostly cloudy.15 mph86%29.92 "Hg6 mi
10:00 pm32 °FLight snow. Mostly cloudy.13 mph87%29.92 "Hg3 mi
9:30 pm32 °FLight snow. Partly cloudy.15 mph87%29.92 "Hg6 mi
9:00 pm34 °FLight snow. Passing clouds.13 mph81%29.92 "HgN/A
8:30 pm34 °FPassing clouds.13 mph75%29.89 "HgN/A
8:00 pm36 °FPassing clouds.15 mph70%29.89 "HgN/A
7:30 pm36 °FPassing clouds.13 mph70%29.86 "HgN/A
7:00 pm37 °FPartly sunny.15 mph70%29.86 "HgN/A
6:30 pm37 °FPartly sunny.17 mph70%29.86 "HgN/A
6:00 pm37 °FPartly sunny.15 mph75%29.86 "HgN/A
5:30 pm39 °FPartly sunny.15 mph70%29.83 "HgN/A
5:00 pm39 °FPartly sunny.17 mph70%29.83 "HgN/A
4:30 pm41 °FScattered clouds.20 mph70%29.83 "HgN/A
4:00 pm43 °FScattered clouds.17 mph66%29.80 "HgN/A
3:30 pm45 °FScattered clouds.17 mph66%29.80 "HgN/A
3:00 pm46 °FScattered clouds.15 mph62%29.77 "HgN/A
2:30 pm46 °FScattered clouds.17 mph62%29.77 "HgN/A
2:00 pm48 °FPassing clouds.15 mph58%29.77 "HgN/A
Weather by CustomWeather, © 2020

See weather overview

Advertising